Temp
84 72 70 75 80 85 82 79 78 81 87 82 78 77 81 84 84 84 75 78 81 85 87 86 88 88 87 84 81 79 79 77 76 74 72 72 71 72 73 75 80 78 79 80
76 71 82 87 87 84 80 77 78 83 87 81 77 76 82 85 83 80 75 76 77 77 86 87 87 87 85 84 82 80 80 76 77 76 77 75 74 71 69 70 73 78 78 79
72 80 91 88 84 80 76 75 78 77 83 83 78 71 77 84 84 81 76 81 79 78 83 85 86 85 86 84 82 82 80 80 80 79 76 74 72 73 71 71 72 75 78 79
78 87 87 84 82 79 67 84 86 83 73 62 77 56 68 78 78 76 74 75 80 78 78 81 87 87 87 85 85 82 81 81 80 79 76 75 71 70 71 73 73 73 76 77
76 83 81 81 82 84 78 88 83 82 71 64 71 62 67 75 73 71 75 77 75 85 79 76 88 88 88 87 85 84 81 80 80 79 77 74 73 73 74 73 72 73 74 73
81 90 84 83 88 87 91 80 77 74 66 55 66 67 65 69 73 76 78 77 75 76 80 77 80 89 87 88 86 84 80 79 80 80 78 76 74 74 72 69 69 70 74 73
77 81 84 87 75 84 79 66 55 53 53 54 65 62 62 71 74 78 74 74 76 72 70 74 74 87 88 87 85 83 80 79 80 80 78 78 76 76 75 73 71 74 71 71
64 64 80 86 79 74 74 69 56 50 55 59 67 57 61 69 75 76 77 73 79 72 72 73 81 88 89 87 86 84 80 78 79 79 78 78 78 77 77 76 75 73 73 71
64 69 86 88 86 79 73 64 75 67 63 61 54 61 68 72 75 75 75 78 70 76 74 69 77 82 87 87 86 83 81 80 79 79 79 79 79 79 78 79 77 76 73 74
74 65 78 87 86 85 73 77 64 61 51 49 55 53 58 64 72 74 75 77 77 76 76 76 80 79 72 89 87 84 83 82 81 80 80 78 78 78 79 78 76 76 77 78
72 71 74 80 76 69 69 67 66 65 61 57 53 58 65 63 67 70 71 75 75 67 71 74 73 73 76 87 85 85 84 82 80 78 78 77 77 77 78 76 76 78 77 77
75 67 61 67 78 81 74 67 66 58 60 60 57 50 69 64 67 69 66 66 68 70 74 80 79 81 81 81 81 79 76 76 78 81 79 79 79 78 77 77 77 77 76 76
76 64 52 58 71 74 67 69 72 72 64 58 55 55 68 63 65 65 62 64 65 71 77 78 75 74 75 73 72 75 76 76 80 81 78 78 78 76 74 74 74 75 74 75
78 67 62 53 59 62 66 73 72 66 57 62 58 57 58 61 64 65 63 65 66 72 72 71 69 69 71 71 71 70 72 72 75 75 74 73 74 74 73 73 72 72 72 72
75 61 64 66 71 71 69 71 71 67 68 59 60 56 62 63 64 63 66 68 69 75 74 75 73 71 72 72 72 73 73 75 75 73 73 72 73 73 73 72 71 72 71 71
76 62 62 60 70 70 69 73 74 73 75 68 69 66 69 69 64 63 67 68 69 68 75 75 75 75 74 75 73 75 74 74 75 73 72 72 72 72 71 71 71 70 70 70
71 66 61 56 66 66 59 70 72 73 75 73 62 67 74 66 66 64 63 67 68 69 76 75 76 75 74 74 76 73 73 74 74 75 74 73 72 71 70 71 70 69 69 69
73 66 64 57 61 50 67 80 79 75 79 77 75 75 76 72 70 69 66 63 67 68 71 73 76 76 77 77 75 75 74 73 73 71 71 71 70 70 70 69 68 67 67 67
76 66 59 55 53 64 71 76 74 70 68 78 74 76 78 76 75 67 71 74 72 71 69 71 75 76 77 77 75 73 72 71 70 69 69 69 69 68 67 66 66 66 65 65
73 70 63 59 52 51 66 78 82 80 59 77 77 75 75 73 61 62 70 77 76 76 75 74 75 74 72 71 71 69 68 66 64 65 66 67 67 66 66 65 65 64 64 64
62 62 60 57 55 62 71 79 81 58 58 76 76 74 72 68 67 71 74 74 75 73 73 73 72 68 66 67 67 64 62 60 64 66 65 65 65 64 64 63 63 62 62 65
61 58 57 58 53 51 75 75 64 66 71 75 74 73 72 71 72 72 72 70 71 69 69 69 66 65 64 64 63 60 59 60 62 62 63 62 62 64 66 61 61 61 61 62
61 66 60 61 59 69 72 72 75 75 71 71 71 73 73 71 69 69 67 67 67 66 65 65 64 61 61 60 59 56 57 58 58 58 59 60 60 61 60 58 59 60 61 59
67 71 63 64 65 70 74 75 76 76 74 74 74 72 71 67 67 66 66 64 63 62 61 61 59 57 56 57 57 55 56 56 55 55 55 58 59 61 57 59 59 59 60 61
69 69 66 66 66 71 73 74 74 75 75 74 74 72 69 67 64 64 61 59 59 59 59 57 55 54 53 54 54 56 55 54 53 55 55 55 56 57 56 55 56 57 60 60
70 67 62 60 67 66 67 72 76 72 71 71 69 68 68 66 63 62 58 57 57 55 55 54 53 53 53 55 56 57 59 59 57 55 57 57 57 57 58 57 58 57 53 52
MSLP
1001.23 1001.76 1001.63 1001.14 1000.67 1000.62 1000.67 1000.44 1000.44 1000.91 1001.03 1001.62 1002.66 1003.55 1004.14 1004.63 1005.55 1006.49 1007.38 1008.03 1008.11 1007.85 1008.28 1008.87 1009.27 1009.85 1010.71 1011.47 1012.32 1012.90 1013.48 1014.03 1014.58 1015.29 1015.91 1016.40 1016.58 1016.42 1016.62 1016.44 1016.28 1016.38 1016.16 1016.22
1001.78 1001.65 1001.36 1000.91 1000.37 1000.41 1000.02 1000.26 1000.07 1000.46 1000.67 1001.40 1002.38 1002.98 1003.62 1004.15 1005.26 1006.39 1007.01 1007.51 1008.07 1009.22 1008.37 1008.72 1009.18 1009.58 1010.27 1011.03 1011.83 1012.53 1013.14 1013.78 1014.37 1014.94 1015.47 1015.58 1015.90 1016.07 1016.28 1016.41 1016.35 1016.02 1016.11 1016.11
1001.59 1001.12 1000.68 1000.90 1000.30 1000.03 999.96 999.79 999.94 1000.24 1000.54 1001.03 1001.90 1003.17 1003.90 1004.03 1004.82 1006.13 1006.93 1006.92 1007.97 1008.90 1008.52 1008.70 1008.89 1009.31 1009.76 1010.47 1011.14 1011.81 1012.43 1013.16 1013.93 1014.38 1014.83 1015.23 1015.52 1015.40 1016.19 1016.19 1016.14 1015.91 1015.55 1015.44
1001.05 1000.45 1000.53 1000.17 1000.17 999.92 999.92 999.87 1000.13 1000.30 1001.06 1001.79 1001.90 1003.88 1004.00 1004.00 1005.09 1006.06 1006.70 1007.54 1007.48 1008.83 1009.49 1009.78 1008.92 1009.12 1009.39 1009.86 1010.44 1011.08 1011.86 1012.61 1013.23 1013.77 1014.34 1014.66 1015.14 1015.83 1015.58 1015.56 1015.67 1015.63 1014.87 1014.90
1000.57 999.84 999.80 999.77 999.55 999.33 999.66 999.42 1000.12 1000.72 1001.60 1002.43 1002.58 1003.70 1003.90 1004.28 1005.09 1006.30 1007.09 1006.50 1007.80 1007.73 1008.64 1009.20 1008.50 1008.62 1008.72 1009.19 1009.79 1010.42 1011.40 1012.27 1012.72 1013.29 1013.84 1014.35 1014.76 1014.95 1014.83 1015.24 1015.67 1015.40 1015.39 1016.17
1000.09 999.41 999.11 999.01 998.98 999.08 999.23 999.92 1000.51 1001.40 1002.61 1003.59 1003.35 1004.05 1004.04 1004.76 1004.85 1006.17 1006.87 1006.95 1008.21 1009.91 1009.07 1009.51 1009.04 1007.87 1008.30 1008.79 1009.20 1009.94 1010.86 1011.87 1012.39 1012.73 1013.16 1013.70 1014.21 1014.62 1014.86 1015.49 1015.42 1015.62 1015.40 1016.29
1000.13 999.45 998.74 998.54 998.97 999.16 999.61 1000.53 1001.86 1003.24 1004.18 1004.33 1004.18 1004.76 1006.11 1005.98 1006.11 1007.06 1008.45 1008.75 1008.44 1009.55 1009.44 1008.03 1009.00 1007.59 1007.90 1008.47 1008.71 1009.61 1010.55 1011.33 1012.00 1012.43 1012.69 1013.10 1013.53 1013.94 1014.39 1014.70 1015.05 1015.50 1015.83 1015.86
1000.29 999.67 998.71 998.27 998.72 999.12 999.82 1000.84 1002.10 1003.36 1004.38 1004.72 1005.00 1006.80 1006.98 1006.64 1006.14 1006.22 1007.78 1009.26 1009.51 1009.75 1010.57 1011.28 1009.55 1007.58 1007.50 1007.73 1007.98 1009.04 1010.26 1011.01 1011.51 1011.99 1012.28 1012.61 1012.95 1013.54 1013.81 1014.21 1014.43 1015.01 1015.06 1015.45
999.94 999.26 998.14 998.18 998.32 998.91 999.79 1000.55 1001.05 1002.77 1003.38 1004.72 1006.78 1007.38 1007.53 1006.10 1005.80 1005.35 1005.72 1005.92 1009.15 1009.18 1010.03 1007.19 1008.69 1008.05 1008.03 1007.26 1007.72 1008.64 1009.70 1010.51 1011.20 1011.63 1011.77 1012.08 1012.41 1013.02 1013.45 1013.79 1013.90 1014.21 1014.78 1015.02
999.08 999.35 998.95 998.55 998.59 998.90 999.59 1000.21 1001.36 1002.68 1004.32 1005.43 1006.93 1007.78 1007.41 1006.83 1005.82 1005.45 1005.29 1006.11 1005.82 1008.66 1007.96 1007.20 1006.89 1007.56 1008.21 1006.93 1007.68 1008.62 1009.24 1009.89 1010.44 1010.93 1011.11 1011.67 1011.86 1012.48 1012.90 1013.44 1013.76 1013.90 1014.03 1014.31
998.43 999.29 999.79 999.36 1000.33 1000.99 1001.01 1001.13 1001.51 1002.72 1003.89 1005.48 1007.56 1007.97 1007.63 1007.75 1007.20 1006.79 1007.13 1006.95 1005.40 1007.57 1007.54 1006.17 1007.14 1008.42 1008.95 1007.21 1007.70 1008.44 1008.88 1009.92 1010.43 1010.85 1011.17 1011.45 1011.77 1012.21 1012.62 1013.16 1013.55 1013.69 1013.87 1013.95
998.35 1000.01 1001.39 1001.55 1001.12 1001.44 1001.93 1002.74 1002.81 1003.88 1004.09 1004.63 1005.85 1008.95 1008.37 1007.73 1007.89 1008.23 1008.96 1008.12 1008.41 1009.27 1006.60 1006.26 1008.43 1008.98 1008.17 1008.20 1008.61 1009.53 1009.83 1010.47 1010.63 1010.84 1011.17 1011.33 1011.62 1011.92 1012.25 1012.71 1013.38 1013.62 1013.80 1013.82
999.19 1000.83 1002.92 1003.41 1002.12 1001.74 1002.56 1002.98 1003.26 1002.86 1003.07 1004.46 1006.49 1008.55 1008.54 1009.71 1009.53 1009.63 1008.56 1008.40 1008.70 1008.03 1004.23 1007.80 1007.65 1008.87 1009.31 1010.19 1009.91 1010.35 1010.41 1010.84 1010.81 1011.13 1011.53 1011.53 1011.80 1012.33 1012.88 1013.14 1013.44 1013.72 1013.91 1013.93
999.37 1001.31 1002.84 1004.12 1003.84 1003.73 1003.54 1003.24 1003.34 1004.11 1003.84 1004.49 1006.33 1007.83 1009.20 1010.40 1010.54 1011.22 1010.60 1012.14 1009.67 1008.67 1008.16 1008.13 1008.98 1010.61 1010.82 1011.18 1011.29 1011.05 1011.36 1011.30 1011.33 1011.95 1012.21 1012.21 1012.25 1012.42 1012.59 1012.88 1013.34 1013.60 1013.76 1013.86
1000.27 1002.65 1003.27 1003.68 1003.21 1003.25 1003.13 1003.27 1003.68 1003.91 1003.70 1004.32 1005.86 1007.32 1008.43 1009.81 1010.41 1010.66 1010.65 1010.92 1010.78 1008.66 1008.16 1008.96 1010.27 1011.08 1011.31 1011.66 1011.70 1011.39 1011.65 1011.47 1011.93 1012.49 1012.67 1012.65 1012.52 1012.60 1012.63 1012.86 1013.15 1013.34 1013.45 1013.50
1000.30 1002.69 1003.76 1004.23 1004.20 1004.04 1003.69 1003.50 1003.45 1002.94 1003.29 1003.36 1004.36 1005.73 1006.54 1008.98 1010.14 1011.03 1011.25 1010.91 1010.29 1011.71 1009.89 1010.22 1010.86 1011.15 1011.31 1011.29 1011.52 1011.27 1011.67 1011.95 1012.15 1012.67 1012.96 1012.91 1012.77 1012.91 1012.90 1012.92 1013.06 1013.09 1013.12 1013.14
1001.16 1002.64 1003.76 1004.72 1004.79 1004.70 1004.52 1003.13 1002.73 1002.80 1003.12 1002.66 1004.14 1005.08 1005.87 1008.79 1009.84 1010.55 1010.81 1011.30 1011.84 1011.87 1010.76 1010.65 1011.22 1010.94 1010.98 1010.74 1010.87 1011.05 1011.73 1012.03 1012.47 1012.81 1012.95 1012.87 1012.77 1012.80 1012.80 1012.77 1012.90 1012.94 1012.87 1012.75
1002.57 1002.28 1003.11 1004.38 1005.29 1005.22 1003.08 1001.54 1001.84 1002.95 1002.28 1002.47 1003.82 1004.66 1005.54 1007.37 1008.15 1010.39 1011.59 1011.82 1012.17 1010.96 1011.10 1010.80 1010.77 1010.76 1010.53 1010.58 1010.82 1011.17 1011.94 1012.30 1012.54 1012.73 1012.76 1012.64 1012.62 1012.65 1012.58 1012.72 1012.95 1012.96 1012.85 1012.84
1001.23 1002.14 1003.40 1004.22 1004.46 1003.55 1002.21 1001.83 1001.69 1002.00 1002.83 1002.82 1003.60 1004.58 1005.85 1006.96 1008.15 1010.05 1010.05 1010.11 1010.61 1011.11 1011.13 1010.91 1010.72 1010.87 1010.61 1011.08 1011.24 1011.89 1012.25 1012.47 1012.72 1012.90 1012.86 1012.76 1012.74 1012.76 1012.72 1012.78 1012.83 1012.75 1012.72 1012.64
1001.83 1002.15 1003.42 1004.28 1004.80 1004.35 1003.06 1002.03 1001.66 1002.07 1003.89 1003.58 1004.02 1005.00 1005.87 1007.10 1008.80 1009.95 1009.59 1009.70 1010.09 1010.29 1010.68 1011.08 1011.14 1011.45 1011.90 1012.37 1012.37 1012.72 1013.10 1013.58 1013.85 1013.79 1013.62 1013.27 1013.04 1012.96 1012.83 1012.76 1012.66 1012.42 1012.26 1012.20
1002.49 1003.09 1003.65 1004.26 1004.72 1004.50 1004.02 1002.64 1002.40 1003.49 1005.54 1004.72 1004.96 1005.65 1006.38 1007.80 1008.86 1009.62 1009.93 1010.23 1010.44 1010.91 1011.26 1011.40 1011.92 1012.83 1013.57 1013.74 1013.73 1013.98 1014.45 1014.74 1014.78 1014.22 1013.79 1013.52 1013.27 1013.09 1012.86 1012.75 1012.58 1012.34 1012.04 1011.72
1002.67 1003.17 1003.78 1004.18 1004.62 1005.05 1004.16 1003.71 1004.28 1005.38 1005.49 1005.92 1006.45 1006.98 1007.56 1008.36 1009.27 1009.88 1010.46 1010.97 1011.32 1011.83 1012.11 1012.60 1013.16 1013.89 1014.43 1014.63 1014.71 1014.98 1015.28 1015.41 1015.04 1014.67 1014.32 1013.99 1013.61 1013.30 1012.95 1012.84 1012.58 1012.18 1011.75 1011.39
1002.61 1002.68 1003.55 1004.26 1004.99 1004.91 1004.55 1004.85 1005.01 1005.46 1006.35 1007.00 1007.45 1008.18 1008.66 1009.47 1010.30 1010.84 1011.37 1011.82 1012.39 1012.91 1013.48 1013.85 1014.22 1014.68 1015.04 1015.18 1015.29 1015.57 1015.56 1015.31 1015.16 1015.02 1014.73 1014.34 1013.85 1013.38 1013.10 1012.92 1012.47 1012.04 1011.60 1011.04
1003.17 1002.87 1003.68 1004.35 1005.24 1004.99 1005.13 1005.44 1005.65 1006.13 1007.00 1007.64 1008.22 1008.99 1009.64 1010.58 1011.18 1011.87 1012.45 1013.00 1013.51 1014.04 1014.34 1014.70 1015.01 1015.31 1015.58 1015.68 1015.75 1015.82 1015.67 1015.67 1015.65 1015.39 1015.01 1014.58 1014.14 1013.55 1013.25 1013.08 1012.70 1012.11 1011.54 1010.82
1003.20 1003.30 1003.97 1004.72 1005.12 1005.24 1005.58 1005.94 1006.58 1007.16 1007.69 1008.39 1009.12 1009.79 1010.54 1011.27 1012.17 1012.81 1013.51 1014.11 1014.56 1014.89 1015.25 1015.46 1015.87 1016.18 1016.35 1016.15 1016.17 1016.08 1016.06 1015.96 1015.77 1015.39 1015.01 1014.60 1014.16 1013.62 1013.21 1012.79 1012.37 1011.96 1011.40 1010.96
1002.96 1003.32 1003.96 1004.46 1004.72 1005.13 1006.04 1006.44 1006.86 1007.79 1008.68 1009.30 1010.01 1010.88 1011.60 1012.27 1013.10 1013.64 1014.56 1014.87 1015.23 1015.70 1016.07 1016.35 1016.55 1016.57 1016.53 1016.46 1016.47 1016.24 1015.98 1015.81 1015.68 1015.41 1014.94 1014.53 1014.06 1013.48 1012.89 1012.30 1011.46 1011.08 1010.75 1010.16
Wind_Speed
9 3 5 7 10 7 14 4 11 11 7 6 14 17 15 12 12 13 8 8 3 17 16 16 15 15 16 15 13 13 11 9 8 5 4 2 4 3 3 4 5 7 6 6
7 8 7 16 17 8 6 7 6 10 9 5 11 9 17 13 15 18 16 11 10 8 15 15 16 15 18 15 15 14 14 11 9 7 5 4 3 1 0 2 6 7 6 4
8 11 9 12 10 6 6 7 2 9 8 7 3 5 13 11 10 20 13 11 10 5 9 14 16 16 17 15 15 14 14 16 12 9 4 4 4 1 2 2 4 6 7 5
9 12 8 12 15 8 8 3 7 5 3 4 6 4 7 13 12 19 14 14 12 9 3 7 16 17 19 16 15 13 12 12 8 8 6 7 6 4 5 4 3 6 7 7
12 10 11 12 10 7 7 1 6 5 3 3 9 4 9 11 8 18 18 12 8 6 6 9 11 13 16 16 15 14 12 12 9 8 8 6 4 4 2 3 1 6 4 1
10 9 5 8 7 8 4 4 4 4 1 5 10 4 4 11 9 14 17 17 16 8 8 11 14 11 17 16 14 14 13 12 10 11 9 8 8 6 4 3 2 4 2 9
10 10 7 5 3 9 5 3 4 4 2 9 5 9 2 8 13 12 11 10 9 16 6 25 18 14 18 17 15 14 13 11 10 11 8 8 7 6 6 5 4 3 4 5
7 8 9 6 11 9 8 9 7 5 4 5 11 3 4 5 6 3 14 13 16 26 15 14 20 10 18 18 17 16 13 10 10 8 8 8 7 4 4 5 4 2 2 7
3 8 7 7 6 2 6 4 12 6 5 3 4 2 7 6 6 9 9 12 11 16 17 16 23 8 8 15 16 16 14 11 9 10 7 7 7 7 5 4 4 2 4 7
9 1 7 11 6 8 5 6 7 5 3 1 1 3 5 7 7 8 5 8 5 4 17 23 15 13 9 12 12 16 14 14 12 10 8 6 7 6 5 3 4 4 3 3
4 2 6 4 8 5 7 6 5 2 3 4 2 3 4 4 7 8 7 16 9 3 10 5 7 7 14 5 8 15 12 9 6 6 6 7 6 5 4 4 5 5 3 4
4 6 6 5 5 7 8 5 4 4 10 4 7 5 6 9 0 4 11 14 15 21 15 17 14 10 13 13 13 10 11 6 7 6 7 7 6 4 3 2 2 2 4 3
5 3 4 11 8 6 6 5 13 8 2 2 5 5 4 5 1 12 16 26 24 14 19 17 16 12 12 11 7 9 6 5 5 6 4 5 4 6 7 7 6 6 5 4
6 6 7 7 9 3 7 8 10 6 4 3 4 6 6 7 7 12 17 11 24 6 15 15 12 9 8 7 6 6 7 6 9 7 6 6 6 6 5 5 5 4 3 3
8 5 8 6 7 4 3 3 12 16 13 4 8 10 15 12 9 17 21 16 17 8 13 13 11 8 7 6 5 7 6 8 7 7 6 5 5 5 5 4 4 3 4 4
2 7 4 4 2 8 7 6 9 15 17 4 9 7 13 13 6 4 11 9 10 13 10 10 8 8 8 7 5 7 6 5 5 3 2 2 2 2 2 3 4 4 5 5
3 7 5 5 3 7 7 14 2 9 13 7 8 5 14 16 13 15 13 8 11 13 10 13 12 11 8 8 8 5 4 4 3 4 4 4 4 4 5 5 5 5 6 5
12 7 4 5 8 3 11 16 14 9 6 5 12 11 11 15 18 15 11 16 15 11 7 4 5 3 6 7 7 7 6 4 4 5 5 5 5 5 5 4 4 4 4 5
5 4 4 5 1 6 9 9 4 5 6 8 10 10 17 18 20 7 10 5 8 7 5 2 3 4 7 7 6 5 3 1 2 3 2 2 2 2 2 4 5 4 4 5
6 6 6 4 2 2 8 4 8 8 5 6 12 10 10 15 11 2 6 8 8 8 8 7 7 10 14 12 10 10 9 11 9 7 7 7 6 5 5 5 6 4 4 6
3 3 3 2 0 3 9 8 5 5 3 14 14 14 15 12 8 8 8 9 8 10 11 11 15 14 12 12 11 11 11 11 11 9 7 7 7 7 6 5 4 4 6 8
4 4 2 1 0 1 9 9 6 4 8 14 13 10 12 10 12 11 11 11 12 14 15 13 11 10 11 11 10 8 9 8 9 10 9 6 6 6 6 7 5 6 6 8
2 5 5 7 6 4 4 7 8 11 12 9 13 11 12 13 11 10 9 10 13 12 11 10 10 9 9 8 7 6 6 6 8 9 8 9 7 6 6 6 7 7 7 5
4 7 4 7 3 6 8 11 10 12 14 13 12 13 12 10 10 10 10 9 10 11 9 8 9 8 8 8 8 6 7 7 8 9 9 10 11 10 6 7 8 9 9 8
4 3 4 3 5 8 8 11 11 14 13 12 12 12 10 10 10 8 8 9 8 7 8 7 7 6 6 7 7 7 6 6 7 8 9 9 8 10 9 8 7 9 10 11
2 2 2 4 7 7 7 9 13 13 11 9 11 10 10 10 8 9 8 6 7 7 7 6 7 6 6 6 6 7 7 8 10 9 9 8 9 10 10 9 11 9 13 18
Wind_Direction
256 252 286 325 300 138 238 218 131 186 197 181 141 167 172 183 171 137 74 70 302 165 162 163 166 162 164 164 170 182 169 167 151 158 156 158 208 203 226 255 232 234 230 212
279 227 128 284 295 266 231 276 203 164 157 170 173 171 172 189 177 143 125 163 264 300 167 174 175 170 165 171 171 172 183 167 173 171 178 176 155 122 121 251 297 267 259 234
224 240 229 249 275 267 265 252 206 160 182 191 171 196 170 195 125 137 158 164 198 255 180 184 167 173 174 175 168 170 160 174 178 171 150 115 79 353 298 232 256 271 218 203
242 246 225 210 243 215 252 14 322 219 85 212 174 230 207 181 153 157 161 168 182 168 7 259 187 178 180 172 169 165 155 165 169 163 154 167 167 175 214 207 209 242 217 217
249 238 224 254 247 236 238 266 255 266 217 224 279 133 225 173 178 165 158 179 98 144 197 229 204 180 168 165 166 168 160 162 169 170 173 178 168 190 198 91 11 281 228 139
251 276 205 219 219 266 237 119 311 294 203 337 260 208 227 168 177 145 168 154 135 253 331 298 285 178 167 170 164 164 163 168 172 177 180 187 174 185 163 150 247 286 273 86
274 271 275 208 270 263 256 102 312 343 354 225 175 61 132 21 3 20 153 172 130 147 103 275 262 186 162 171 162 164 167 172 175 170 172 186 190 190 178 184 199 197 132 148
196 271 212 196 203 208 188 175 173 233 171 249 46 20 262 313 295 156 132 174 217 187 186 307 228 169 164 165 159 164 168 163 164 172 175 177 189 180 191 196 221 206 145 163
238 256 189 209 228 149 275 211 225 253 278 90 179 205 297 308 344 2 349 343 69 138 141 88 315 300 235 158 161 162 164 163 166 175 179 186 175 170 178 158 155 161 105 140
251 25 302 220 185 251 196 246 6 346 329 253 0 174 222 247 196 223 278 275 306 234 158 160 176 246 283 161 152 160 162 168 177 177 173 166 163 169 169 166 190 147 163 165
244 134 280 74 48 33 347 302 273 206 160 98 206 280 320 215 227 239 339 312 334 51 265 134 142 220 260 140 151 165 154 157 134 127 127 144 138 169 167 177 167 166 209 188
218 93 86 285 312 85 80 5 345 89 283 179 157 280 286 239 206 355 12 321 328 313 225 121 148 139 71 75 85 98 86 101 106 111 119 131 135 124 153 180 104 201 153 151
353 43 57 348 342 15 65 331 318 342 13 354 87 246 246 317 293 69 24 350 328 312 66 74 63 51 54 53 43 66 96 90 102 80 105 113 110 62 90 79 70 59 49 30
71 47 126 169 223 129 288 316 317 314 40 330 157 182 243 213 248 107 91 108 271 91 86 85 69 56 54 59 54 58 63 83 66 57 57 63 60 60 64 65 57 48 36 9
116 126 132 198 230 186 258 299 320 319 308 49 164 180 194 191 191 158 165 165 285 81 89 94 109 113 91 73 73 81 67 67 73 67 50 39 39 29 21 1 340 332 333 314
256 176 120 226 24 314 326 347 300 302 305 45 81 68 177 163 99 109 165 174 73 288 135 119 126 136 145 147 128 116 117 107 95 86 57 67 49 2 321 313 299 297 284 281
291 148 150 185 39 327 312 238 107 294 294 85 91 116 104 155 172 187 202 165 196 238 156 156 173 170 173 165 161 125 138 130 148 174 211 217 232 244 250 256 271 284 291 296
261 149 139 147 142 180 236 194 204 217 27 55 97 92 75 126 197 177 201 185 168 222 105 71 139 155 121 102 105 110 136 169 195 222 222 229 238 246 261 287 314 322 318 308
82 81 54 103 356 316 351 23 77 115 32 91 113 103 105 91 85 47 121 139 126 112 118 139 92 99 83 79 81 95 94 75 20 345 323 325 62 34 327 299 287 279 284 280
79 103 105 50 58 279 272 127 98 91 20 35 93 105 105 97 87 99 34 81 62 63 72 79 66 52 46 23 36 44 33 47 39 18 2 359 357 340 308 284 277 262 263 262
80 53 96 38 157 78 327 28 37 68 214 43 74 87 87 100 135 142 95 69 71 63 52 52 59 71 51 36 34 39 40 25 2 347 348 338 333 322 314 317 315 288 290 290
133 111 210 278 264 130 318 33 84 194 56 82 63 72 92 88 78 74 66 61 58 57 49 48 56 56 53 41 37 28 34 14 2 353 340 335 330 328 319 308 301 298 286 281
67 157 156 130 178 179 58 95 69 82 81 67 76 55 70 68 65 62 57 52 57 57 56 46 43 43 43 40 39 25 356 358 355 346 337 330 319 315 318 312 301 304 301 286
25 12 77 81 175 132 101 64 74 85 87 73 69 71 63 66 60 56 54 50 57 49 46 46 39 34 20 25 26 10 11 9 1 346 334 328 322 322 331 325 307 298 290 288
166 88 122 100 130 98 96 105 95 79 74 77 72 69 58 60 56 58 57 54 53 42 44 46 44 22 28 17 356 3 18 4 338 326 320 315 314 314 308 290 288 290 286 281
135 148 132 212 160 136 143 117 107 94 83 71 83 72 66 73 67 69 79 64 59 53 40 40 37 22 1 5 5 349 347 346 341 333 329 323 319 316 310 306 311 276 262 282